Volver al catálogo

STARLINK-35567

ActivoComunicacionesVLEO
NORAD 66472·PAYLOAD·🇺🇸 United States

Lanzado Nov 15, 2025 desde Cape Canaveral Space Force Station

Loading…

Próximos Pases (próximas 24 horas)

TLE

ActualizadoSource: CelesTrak SupGP

Época: Sep 15, 2026, 03:00 UTC

1 66472C 25262S   26258.12548611  .00034293  00000+0  12418-2 0  2589
2 66472  43.0012 306.0639 0001525 263.4314  12.6622 15.27568839    14

Sigue STARLINK-35567 en tiempo real con AllMySat

Download on the App Store